Cedar Rapids, IA

7:37 AM CDT on October 22, 2019 (GMT -0500)
The Eastern Iowa Airport

Weather History for KCID - August, 2019

Change the Weather History Date:

Saturday, August 17, 2019

  Actual Average Record
Temperature  
Mean Temperature 71 °F 71 °F  
Max Temperature 83 °F 82 °F 100 °F (1988)
Min Temperature 59 °F 61 °F 46 °F (1924)
Degree Days  
Heating Degree Days 0 0  
Month to date heating degree days 0 0  
Since 1 June heating degree days 11 33  
Since 1 July heating degree days 0 4  
Cooling Degree Days 6 7  
Month to date cooling degree days 111 121  
Year to date cooling degree days 613 588  
Since 1 June cooling degree days 585 539  
Growing Degree Days 20 (Base 50)    
Moisture  
Dew Point 65 °F    
Average Humidity 81    
Maximum Humidity 100    
Minimum Humidity 62    
Precipitation  
Precipitation T in 0.15 in 2.38 in (1902)
Month to date precipitation 1.42 2.47  
Year to date precipitation 24.01 23.29  
Sea Level Pressure  
Sea Level Pressure 29.84 in    
Wind  
Wind Speed 6 mph (SE)    
Max Wind Speed 13 mph    
Max Gust Speed 19 mph    
Visibility 10 miles    
Events      
T = Trace of Precipitation, MM = Missing Value Source: NWS Daily Summary

Daily Weather History Graph

Daily Weather History Graph

Search for Another Location

Airport or City:

Astronomy

Aug. 17, 2019 Rise Set
Actual Time 6:16 AM CDT 8:04 PM CDT
Civil Twilight 5:46 AM CDT 8:34 PM CDT
Nautical Twilight 5:10 AM CDT 9:10 PM CDT
Astronomical Twilight 4:31 AM CDT 9:49 PM CDT
Moon 9:30 PM CDT (8/17) 8:06 AM CDT (8/17)
Length of Visible Light 14h 47m
Length of Day
13h 47m
Waning Gibbous, 96% of the Moon is Illuminated
Aug 17
Waning Gibbous
Aug 23
Last Quarter
Aug 30
New
Sep 5
First Quarter
Sep 13
Full

Hourly Weather History & Observations

Time (CDT) Temp. Heat Index Dew Point Humidity Pressure Visibility Wind Dir Wind Speed Gust Speed Precip Events Conditions
12:52 AM 63.0 °F - 61.0 °F 93% 29.88 in 10.0 mi Calm Calm - N/A   Clear
1:52 AM 60.1 °F - 59.0 °F 96% 29.87 in 10.0 mi Calm Calm - N/A   Clear
2:52 AM 63.0 °F - 61.0 °F 93% 29.78 in 10.0 mi ENE 10.4 mph - N/A   Clear
3:21 AM 60.1 °F - 59.0 °F 96% 29.85 in 10.0 mi SE 3.5 mph - N/A   Clear
3:52 AM 60.1 °F - 59.0 °F 96% 29.86 in 10.0 mi SSE 3.5 mph - N/A   Clear
4:52 AM 60.1 °F - 60.1 °F 100% 29.88 in 10.0 mi Calm Calm - N/A   Partly Cloudy
5:52 AM 63.0 °F - 61.0 °F 93% 29.89 in 10.0 mi Calm Calm - N/A   Mostly Cloudy
6:12 AM 63.0 °F - 61.0 °F 93% 29.92 in 10.0 mi Calm Calm - N/A   Mostly Cloudy
6:52 AM 64.0 °F - 62.1 °F 93% 29.88 in 10.0 mi NNE 5.8 mph - N/A   Mostly Cloudy
7:52 AM 66.0 °F - 63.0 °F 90% 29.88 in 8.0 mi Calm Calm - 0.00 in   Mostly Cloudy
8:06 AM 64.9 °F - 64.0 °F 97% 29.89 in 10.0 mi SSE 4.6 mph - N/A   Overcast
8:52 AM 66.0 °F - 64.0 °F 93% 29.88 in 10.0 mi ESE 8.1 mph - N/A   Overcast
9:52 AM 72.0 °F - 64.9 °F 78% 29.86 in 10.0 mi SE 10.4 mph - N/A   Clear
10:52 AM 75.9 °F - 66.9 °F 74% 29.83 in 10.0 mi ENE 8.1 mph - N/A   Clear
11:52 AM 77.0 °F - 66.9 °F 71% 29.83 in 10.0 mi NE 8.1 mph - N/A   Clear
12:52 PM 79.0 °F - 68.0 °F 69% 29.84 in 10.0 mi ESE 10.4 mph - N/A   Clear
1:52 PM 78.1 °F - 68.0 °F 71% 29.86 in 10.0 mi SSE 9.2 mph - N/A   Mostly Cloudy
2:03 PM 79.0 °F - 68.0 °F 69% 29.87 in 10.0 mi SSE 10.4 mph - N/A   Mostly Cloudy
2:11 PM 79.0 °F - 66.9 °F 66% 29.87 in 10.0 mi South 10.4 mph - N/A   Mostly Cloudy
2:52 PM 78.1 °F - 66.9 °F 68% 29.83 in 10.0 mi South 10.4 mph - N/A   Mostly Cloudy
3:52 PM 81.0 °F 83.8 °F 68.0 °F 65% 29.82 in 10.0 mi South 8.1 mph - N/A   Mostly Cloudy
4:52 PM 81.0 °F 83.3 °F 66.9 °F 62% 29.81 in 10.0 mi SSW 9.2 mph - N/A   Clear
5:52 PM 78.1 °F - 66.9 °F 68% 29.82 in 10.0 mi South 6.9 mph - N/A   Clear
6:52 PM 77.0 °F - 66.9 °F 71% 29.80 in 10.0 mi SSE 5.8 mph - N/A   Clear
7:52 PM 73.0 °F - 68.0 °F 84% 29.78 in 10.0 mi SSE 3.5 mph - N/A   Clear
8:52 PM 73.0 °F - 66.9 °F 81% 29.79 in 10.0 mi Variable 3.5 mph - N/A   Clear
9:52 PM 70.0 °F - 66.9 °F 90% 29.79 in 10.0 mi SSE 5.8 mph - N/A   Clear
10:52 PM 69.1 °F - 66.9 °F 93% 29.80 in 10.0 mi SSE 5.8 mph - N/A   Clear
11:52 PM 70.0 °F - 68.0 °F 93% 29.79 in 10.0 mi SSE 8.1 mph - N/A   Clear